• Join FlightAware (Why Join?)
  • Login
  • US Flag GB Flag 
01:46 EST


 

Airport Tracker/Info


-or-


 

Live Flight TrackerFlight Track Log ✈ AAY860 ✈ 21-Jun-2014 ✈ KPIE - KTYS

Flight Track Log - Related Links

Times and Time Zones

All times are in EDT time to prevent confusion due to time zone crossing. See the AAY860 flight status page for this flight to view local times or setup timezone preferences in your user account.

Time Position Orientation Groundspeed Altitude Reporting Facility
EDT Latitude Longitude Course Direction KTS MPH feet Rate Location/Type
06:25 27.9000 -82.6833 180° South 160 184 700  Level Tampa TRACON
06:26 27.8500 -82.6833 180° South 187 215 2,600 1,920 Climbing Tampa TRACON
06:27 27.8167 -82.7333 233° Southwest 266 306 4,400 2,400 Climbing Tampa TRACON
06:29 27.9453 -82.7750 344° North 266 306 9,600 2,460 Climbing Jacksonville Center
06:30 28.0289 -82.7867 353° North 285 328 11,600 1,920 Climbing Jacksonville Center
06:31 28.1247 -82.8031 351° North 317 365 13,500 2,400 Climbing Jacksonville Center
06:32 28.2456 -82.8208 353° North 354 407 16,700 2,160 Climbing Miami Center
06:33 28.3253 -82.8361 350° North 356 410 17,900 1,680 Climbing Jacksonville Center
06:34 28.4358 -82.8547 352° North 376 433 19,900 1,800 Climbing Jacksonville Center
06:35 28.5444 -82.8736 351° North 386 444 21,500 1,620 Climbing Jacksonville Center
06:36 28.6592 -82.8925 352° North 399 459 23,200 1,620 Climbing Jacksonville Center
06:37 28.7844 -82.9114 352° North 405 466 24,800 1,500 Climbing Jacksonville Center
06:38 28.8992 -82.9306 352° North 411 473 26,200 1,320 Climbing Jacksonville Center
06:39 29.0203 -82.9519 351° North 422 486 27,500 1,200 Climbing Jacksonville Center
06:40 29.1411 -82.9733 351° North 428 493 28,600 960 Climbing Jacksonville Center
06:41 29.2644 -82.9925 352° North 435 501 29,500 900 Climbing Jacksonville Center
06:42 29.3917 -83.0142 352° North 451 519 30,400 1,020 Climbing Jacksonville Center
06:43 29.5128 -83.0381 350° North 465 535 31,600 1,260 Climbing Jacksonville Center
06:44 29.6358 -83.0669 348° North 465 535 33,000 1,200 Climbing Jacksonville Center
06:45 29.7569 -83.1247 338° Northwest 457 526 34,000 1,020 Climbing Jacksonville Center
06:46 29.8717 -83.1800 337° Northwest 457 526 35,100 960 Climbing Jacksonville Center
06:47 29.9906 -83.2308 340° North 451 519 36,000 420 Climbing Jacksonville Center
06:48 30.1094 -83.2864 338° Northwest 456 525 36,000 300 Level Jacksonville Center
06:49 30.2281 -83.3422 338° Northwest 456 525 36,700 780 Climbing Jacksonville Center
06:50 30.3533 -83.3594 353° North 445 512 37,600 600 Climbing Jacksonville Center
06:51 30.4786 -83.3722 355° North 450 518 38,000 180 Climbing Jacksonville Center
06:52 30.6058 -83.3825 356° North 450 518 38,000  Level Jacksonville Center
06:53 30.7353 -83.3928 356° North 450 518 38,000  Level Jacksonville Center
06:54 30.8753 -83.4058 355° North 455 524 38,000  Level Jacksonville Center
06:55 31.0044 -83.4211 354° North 460 529 38,000  Level Jacksonville Center
06:56 31.1339 -83.4314 356° North 460 529 38,000  Level Jacksonville Center
06:58 31.3947 -83.4575 355° North 466 536 38,000  Level Atlanta Center
06:59 31.5219 -83.4664 357° North 466 536 38,000  Level Atlanta Center
07:00 31.6536 -83.4778 356° North 466 536 38,000  Level Atlanta Center
07:01 31.7975 -83.4914 355° North 466 536 38,000  Level Atlanta Center
07:02 31.9269 -83.5053 355° North 466 536 38,000  Level Atlanta Center
07:03 32.0564 -83.5169 356° North 466 536 38,000  Level Atlanta Center
07:04 32.1839 -83.5308 355° North 466 536 38,000  Level Atlanta Center
07:05 32.3133 -83.5425 356° North 466 536 38,000  Level Atlanta Center
07:06 32.4428 -83.5539 356° North 466 536 38,000  Level Atlanta Center
07:07 32.5681 -83.5656 356° North 466 536 38,000  Level Atlanta Center
07:08 32.6975 -83.5797 355° North 466 536 38,000  Level Atlanta Center
07:09 32.8228 -83.5864 357° North 460 529 38,000  Level Atlanta Center
07:10 32.9503 -83.6006 355° North 460 529 38,000  Level Atlanta Center
07:11 33.0483 -83.6125 354° North 460 529 38,100  Climbing Atlanta Center
07:12 33.1842 -83.6242 356° North 449 517 38,000 -60 Descending Atlanta Center
07:13 33.3197 -83.6386 355° North 444 511 38,000  Level Atlanta Center
07:14 33.4450 -83.6506 355° North 444 511 38,000  Level Atlanta Center
07:15 33.5661 -83.6622 355° North 444 511 38,000  Level Atlanta Center
07:16 33.6872 -83.6717 356° North 444 511 38,100  Climbing Atlanta Center
07:17 33.8106 -83.6839 355° North 444 511 38,000 -60 Descending Atlanta Center
07:18 33.9314 -83.6958 355° North 444 511 38,000  Level Atlanta Center
07:19 34.0547 -83.7078 355° North 444 511 38,000  Level Atlanta Center
07:20 34.1778 -83.7200 355° North 439 505 38,000  Level Atlanta Center
07:21 34.2969 -83.7319 355° North 439 505 38,000 -240 Level Atlanta Center
07:22 34.4181 -83.7442 355° North 439 505 37,600 -660 Descending Atlanta Center
07:23 34.5389 -83.7564 355° North 439 505 36,700 -960 Descending Atlanta Center
07:24 34.6642 -83.7711 354° North 445 512 35,700 -900 Descending Atlanta Center
07:25 34.7833 -83.7808 356° North 440 506 35,000 -360 Descending Atlanta Center
07:26 34.9064 -83.7931 355° North 440 506 35,000  Level Atlanta Center
07:27 35.0253 -83.8056 355° North 426 490 35,000  Level Atlanta Center
07:28 35.1381 -83.8178 355° North 420 483 35,000 -300 Level Atlanta Center
07:29 35.2486 -83.8303 355° North 407 468 34,400 -840 Descending Atlanta Center
07:30 35.3614 -83.8428 355° North 401 461 33,400 -960 Descending Atlanta Center
07:31 35.4719 -83.8525 356° North 401 461 32,500 -960 Descending Atlanta Center
07:32 35.5825 -83.8625 356° North 401 461 31,500 -960 Descending Atlanta Center
07:33 35.6972 -83.8750 355° North 407 468 30,600 -1,320 Descending Atlanta Center
07:34 35.8078 -83.8878 355° North 407 468 28,900 -2,700 Descending Atlanta Center
07:35 35.9183 -83.9003 355° North 402 463 25,200 -4,200 Descending Atlanta Center
07:36 36.0247 -83.9308 347° North 397 457 20,600 -4,200 Descending Atlanta Center
07:37 36.1269 -83.9000 14° North 377 434 16,900 -3,660 Descending Atlanta Center
07:38 36.1978 -83.8047 47° Northeast 351 404 13,300 -2,700 Descending Atlanta Center
07:39 36.1831 -83.6939 99° East 268 308 11,500 -1,560 Descending Atlanta Center
07:40 36.1119 -83.6969 182° South 145 167 10,200 -1,200 Descending Atlanta Center
07:41 36.0517 -83.7383 209° Southwest 169 194 9,100 -1,500 Descending Atlanta Center
07:42 35.9997 -83.7744 209° Southwest 195 224 7,200 -2,100 Descending Atlanta Center
07:43 35.9517 -83.8078 209° Southwest 195 224 4,900 -2,040 Descending Atlanta Center
07:44 35.9183 -83.8464 223° Southwest 201 231 3,200 -1,740 Descending Atlanta Center
07:46 35.8110 -83.9940 185° South  Level Estimated